| time (UTC) | temp F | wind direction | speed MPH | gust MPH | rain 1hr in | rain 24hr in | rain mn in | humidity % | barometer mb |
| 20260906142506 | 88 | 39 | 4.0 | 7.0 | 0.00 | 0.00 | 0.00 | 30 | 1023.8 |
| 20260906141006 | 88 | 89 | 4.0 | 6.0 | 0.00 | 0.00 | 0.00 | 30 | 1023.8 |
| 20260906140006 | 89 | 73 | 4.0 | 6.0 | 0.00 | 0.00 | 0.00 | 30 | 1023.8 |
| 20260906135006 | 89 | 104 | 2.0 | 6.0 | 0.00 | 0.00 | 0.00 | 31 | 1023.8 |
| 20260906134506 | 89 | 90 | 2.0 | 6.0 | 0.00 | 0.00 | 0.00 | 30 | 1023.8 |
| 20260906134006 | 88 | 106 | 2.0 | 6.0 | 0.00 | 0.00 | 0.00 | 31 | 1024.8 |
| 20260906133506 | 88 | 94 | 4.0 | 9.0 | 0.00 | 0.00 | 0.00 | 30 | 1024.8 |
| 20260906133007 | 88 | 64 | 6.0 | 11.0 | 0.00 | 0.00 | 0.00 | 30 | 1024.8 |
| 20260906132506 | 88 | 51 | 4.0 | 11.0 | 0.00 | 0.00 | 0.00 | 30 | 1024.8 |
| 20260906132006 | 89 | 61 | 4.0 | 11.0 | 0.00 | 0.00 | 0.00 | 30 | 1024.8 |
| 20260906131506 | 89 | 83 | 6.0 | 11.0 | 0.00 | 0.00 | 0.00 | 31 | 1024.8 |
| 20260906131006 | 89 | 79 | 4.0 | 9.0 | 0.00 | 0.00 | 0.00 | 31 | 1024.8 |
| 20260906130506 | 88 | 54 | 6.0 | 9.0 | 0.00 | 0.00 | 0.00 | 31 | 1024.8 |
| 20260906130006 | 89 | 68 | 4.0 | 8.0 | 0.00 | 0.00 | 0.00 | 31 | 1024.8 |
| 20260906125506 | 89 | 81 | 5.0 | 8.0 | 0.00 | 0.00 | 0.00 | 31 | 1024.8 |
| 20260906124506 | 89 | 55 | 3.0 | 8.0 | 0.00 | 0.00 | 0.00 | 31 | 1024.8 |
| 20260906124006 | 88 | 51 | 5.0 | 12.0 | 0.00 | 0.00 | 0.00 | 31 | 1024.8 |
| 20260906123506 | 88 | 55 | 8.0 | 12.0 | 0.00 | 0.00 | 0.00 | 31 | 1024.8 |
| 20260906123006 | 88 | 59 | 5.0 | 9.0 | 0.00 | 0.00 | 0.00 | 31 | 1024.8 |
| 20260906122506 | 88 | 49 | 7.0 | 9.0 | 0.00 | 0.00 | 0.00 | 32 | 1024.8 |
| 20260906122007 | 88 | 45 | 3.0 | 11.0 | 0.00 | 0.00 | 0.00 | 31 | 1024.8 |
| 20260906121506 | 88 | 46 | 5.0 | 11.0 | 0.00 | 0.00 | 0.00 | 32 | 1024.8 |
| 20260906121007 | 88 | 46 | 4.0 | 9.0 | 0.00 | 0.00 | 0.00 | 32 | 1024.8 |
| 20260906120506 | 88 | 50 | 3.0 | 10.0 | 0.00 | 0.00 | 0.00 | 32 | 1024.8 |
| 20260906120006 | 87 | 49 | 6.0 | 10.0 | 0.00 | 0.00 | 0.00 | 32 | 1024.8 |
| 20260906115506 | 87 | 49 | 7.0 | 12.0 | 0.00 | 0.00 | 0.00 | 32 | 1024.8 |
| 20260906115006 | 87 | 52 | 7.0 | 12.0 | 0.00 | 0.00 | 0.00 | 32 | 1024.8 |
| 20260906114506 | 87 | 59 | 3.0 | 14.0 | 0.00 | 0.00 | 0.00 | 32 | 1024.8 |
| 20260906114007 | 87 | 56 | 8.0 | 14.0 | 0.00 | 0.00 | 0.00 | 33 | 1024.8 |
| 20260906113506 | 87 | 43 | 8.0 | 11.0 | 0.00 | 0.00 | 0.00 | 32 | 1024.8 |
| 20260906113006 | 87 | 39 | 6.0 | 11.0 | 0.00 | 0.00 | 0.00 | 33 | 1024.8 |
| 20260906112506 | 87 | 48 | 6.0 | 13.0 | 0.00 | 0.00 | 0.00 | 33 | 1024.8 |
| 20260906112006 | 87 | 52 | 7.0 | 13.0 | 0.00 | 0.00 | 0.00 | 33 | 1024.8 |
| 20260906111506 | 87 | 58 | 6.0 | 13.0 | 0.00 | 0.00 | 0.00 | 33 | 1024.8 |
| 20260906111006 | 86 | 44 | 7.0 | 12.0 | 0.00 | 0.00 | 0.00 | 34 | 1024.8 |
| 20260906110505 | 86 | 45 | 4.0 | 11.0 | 0.00 | 0.00 | 0.00 | 33 | 1024.8 |
| 20260906110006 | 86 | 53 | 6.0 | 14.0 | 0.00 | 0.00 | 0.00 | 33 | 1024.8 |
| 20260906105506 | 86 | 51 | 3.0 | 14.0 | 0.00 | 0.00 | 0.00 | 33 | 1024.8 |
| 20260906105006 | 86 | 49 | 8.0 | 16.0 | 0.00 | 0.00 | 0.00 | 34 | 1024.8 |
| 20260906104506 | 86 | 36 | 5.0 | 16.0 | 0.00 | 0.00 | 0.00 | 34 | 1024.8 |
| 20260906104006 | 85 | 45 | 8.0 | 12.0 | 0.00 | 0.00 | 0.00 | 34 | 1025.8 |
| 20260906103506 | 85 | 54 | 5.0 | 12.0 | 0.00 | 0.00 | 0.00 | 34 | 1025.8 |
| 20260906103006 | 85 | 51 | 4.0 | 14.0 | 0.00 | 0.00 | 0.00 | 34 | 1025.8 |
| 20260906102506 | 85 | 51 | 10.0 | 14.0 | 0.00 | 0.00 | 0.00 | 34 | 1025.8 |
| 20260906102006 | 85 | 46 | 6.0 | 12.0 | 0.00 | 0.00 | 0.00 | 34 | 1025.8 |
| 20260906101506 | 85 | 48 | 4.0 | 12.0 | 0.00 | 0.00 | 0.00 | 34 | 1025.8 |
| 20260906101006 | 84 | 52 | 6.0 | 13.0 | 0.00 | 0.00 | 0.00 | 34 | 1025.8 |
| 20260906100506 | 84 | 50 | 5.0 | 13.0 | 0.00 | 0.00 | 0.00 | 34 | 1025.8 |
| 20260906100006 | 84 | 50 | 9.0 | 15.0 | 0.00 | 0.00 | 0.00 | 34 | 1025.8 |
| 20260906095506 | 84 | 54 | 9.0 | 15.0 | 0.00 | 0.00 | 0.00 | 34 | 1025.8 |
| 20260906095006 | 84 | 57 | 6.0 | 14.0 | 0.00 | 0.00 | 0.00 | 36 | 1025.8 |
| 20260906094506 | 83 | 59 | 10.0 | 14.0 | 0.00 | 0.00 | 0.00 | 35 | 1025.8 |
| 20260906094006 | 83 | 52 | 8.0 | 17.0 | 0.00 | 0.00 | 0.00 | 36 | 1025.8 |
| 20260906093506 | 83 | 44 | 6.0 | 17.0 | 0.00 | 0.00 | 0.00 | 36 | 1025.8 |
| 20260906093006 | 83 | 46 | 8.0 | 14.0 | 0.00 | 0.00 | 0.00 | 36 | 1025.8 |
| 20260906092506 | 83 | 46 | 9.0 | 14.0 | 0.00 | 0.00 | 0.00 | 36 | 1025.8 |
| 20260906092006 | 83 | 40 | 8.0 | 14.0 | 0.00 | 0.00 | 0.00 | 36 | 1025.8 |
| 20260906091006 | 83 | 41 | 4.0 | 14.0 | 0.00 | 0.00 | 0.00 | 37 | 1025.8 |
| 20260906090506 | 82 | 43 | 8.0 | 14.0 | 0.00 | 0.00 | 0.00 | 37 | 1025.8 |
| 20260906090007 | 82 | 60 | 3.0 | 14.0 | 0.00 | 0.00 | 0.00 | 37 | 1025.8 |
| 20260906085506 | 82 | 50 | 8.0 | 15.0 | 0.00 | 0.00 | 0.00 | 37 | 1024.8 |
| 20260906085006 | 81 | 45 | 10.0 | 15.0 | 0.00 | 0.00 | 0.00 | 37 | 1024.8 |
| 20260906084506 | 81 | 45 | 5.0 | 18.0 | 0.00 | 0.00 | 0.00 | 38 | 1024.8 |
| 20260906084006 | 81 | 30 | 8.0 | 18.0 | 0.00 | 0.00 | 0.00 | 37 | 1024.8 |
| 20260906083506 | 81 | 34 | 8.0 | 14.0 | 0.00 | 0.00 | 0.00 | 37 | 1024.8 |
| 20260906083006 | 81 | 46 | 8.0 | 16.0 | 0.00 | 0.00 | 0.00 | 37 | 1024.8 |
| 20260906082506 | 81 | 53 | 6.0 | 16.0 | 0.00 | 0.00 | 0.00 | 37 | 1025.8 |
| 20260906082006 | 81 | 42 | 7.0 | 13.0 | 0.00 | 0.00 | 0.00 | 38 | 1025.8 |
| 20260906081506 | 80 | 33 | 4.0 | 12.0 | 0.00 | 0.00 | 0.00 | 38 | 1025.8 |
| 20260906081006 | 80 | 51 | 6.0 | 15.0 | 0.00 | 0.00 | 0.00 | 38 | 1025.8 |
| 20260906080506 | 80 | 59 | 5.0 | 15.0 | 0.00 | 0.00 | 0.00 | 38 | 1025.8 |
| 20260906080006 | 80 | 33 | 1.0 | 12.0 | 0.00 | 0.00 | 0.00 | 39 | 1025.8 |
| 20260906075506 | 80 | 19 | 5.0 | 17.0 | 0.00 | 0.00 | 0.00 | 38 | 1025.8 |
| 20260906075005 | 79 | 25 | 8.0 | 17.0 | 0.00 | 0.00 | 0.00 | 39 | 1025.8 |
| 20260906074006 | 79 | 2 | 6.0 | 15.0 | 0.00 | 0.00 | 0.00 | 40 | 1024.8 |
| 20260906073508 | 79 | 28 | 6.0 | 15.0 | 0.00 | 0.00 | 0.00 | 39 | 1024.8 |
| 20260906073009 | 79 | 46 | 6.0 | 18.0 | 0.00 | 0.00 | 0.00 | 39 | 1024.8 |
| 20260906072506 | 78 | 47 | 5.0 | 18.0 | 0.00 | 0.00 | 0.00 | 40 | 1025.8 |
| 20260906072006 | 78 | 20 | 8.0 | 14.0 | 0.00 | 0.00 | 0.00 | 40 | 1025.8 |
| 20260906071506 | 78 | 12 | 4.0 | 14.0 | 0.00 | 0.00 | 0.00 | 40 | 1025.8 |
| 20260906071006 | 78 | 6 | 5.0 | 12.0 | 0.00 | 0.00 | 0.00 | 40 | 1025.8 |
| 20260906070506 | 78 | 337 | 5.0 | 15.0 | 0.00 | 0.00 | 0.00 | 40 | 1025.8 |
| 20260906070005 | 77 | 347 | 8.0 | 15.0 | 0.00 | 0.00 | 0.00 | 40 | 1025.8 |
| 20260906065506 | 77 | 12 | 6.0 | 11.0 | 0.00 | 0.00 | 0.00 | 41 | 1025.8 |
| 20260906064506 | 77 | 353 | 3.0 | 15.0 | 0.00 | 0.00 | 0.00 | 42 | 1025.8 |
| 20260906063506 | 76 | 348 | 8.0 | 18.0 | 0.00 | 0.00 | 0.00 | 43 | 1025.8 |
| 20260906063006 | 76 | 4 | 6.0 | 18.0 | 0.00 | 0.00 | 0.00 | 43 | 1025.8 |
| 20260906062006 | 76 | 337 | 7.0 | 17.0 | 0.00 | 0.00 | 0.00 | 42 | 1025.8 |
| 20260906061506 | 76 | 348 | 2.0 | 17.0 | 0.00 | 0.00 | 0.00 | 43 | 1025.8 |
| 20260906061006 | 76 | 337 | 2.0 | 16.0 | 0.00 | 0.00 | 0.00 | 43 | 1025.8 |
| 20260906060506 | 76 | 341 | 4.0 | 18.0 | 0.00 | 0.00 | 0.00 | 43 | 1025.8 |
| 20260906060006 | 76 | 357 | 4.0 | 18.0 | 0.00 | 0.00 | 0.00 | 43 | 1025.8 |
| 20260906054006 | 75 | 27 | 4.0 | 13.0 | 0.00 | 0.00 | 0.00 | 44 | 1025.8 |
| 20260906053006 | 75 | 323 | 6.0 | 9.0 | 0.00 | 0.00 | 0.00 | 44 | 1025.8 |
| 20260906052505 | 75 | 338 | 4.0 | 12.0 | 0.00 | 0.00 | 0.00 | 44 | 1024.8 |
| 20260906052006 | 75 | 341 | 5.0 | 12.0 | 0.00 | 0.00 | 0.00 | 43 | 1024.8 |
| 20260906051506 | 75 | 343 | 5.0 | 9.0 | 0.00 | 0.00 | 0.00 | 44 | 1024.8 |
| 20260906051006 | 75 | 334 | 7.0 | 9.0 | 0.00 | 0.00 | 0.00 | 44 | 1024.8 |
| 20260906050506 | 75 | 330 | 1.0 | 13.0 | 0.00 | 0.00 | 0.00 | 44 | 1024.8 |
| 20260906050006 | 75 | 341 | 4.0 | 13.0 | 0.00 | 0.00 | 0.00 | 43 | 1024.8 |
| 20260906045506 | 76 | 346 | 7.0 | 12.0 | 0.00 | 0.00 | 0.00 | 43 | 1024.8 |
| 20260906044506 | 76 | 339 | 6.0 | 15.0 | 0.00 | 0.00 | 0.00 | 43 | 1024.8 |
| 20260906044006 | 76 | 1 | 3.0 | 14.0 | 0.00 | 0.00 | 0.00 | 43 | 1024.8 |
| 20260906043506 | 76 | 10 | 4.0 | 12.0 | 0.00 | 0.00 | 0.00 | 43 | 1024.8 |
| 20260906043006 | 76 | 10 | 6.0 | 15.0 | 0.00 | 0.00 | 0.00 | 43 | 1024.8 |
| 20260906042505 | 76 | 16 | 11.0 | 15.0 | 0.00 | 0.00 | 0.00 | 43 | 1024.8 |
| 20260906042006 | 76 | 16 | 3.0 | 11.0 | 0.00 | 0.00 | 0.00 | 43 | 1024.8 |
| 20260906041505 | 76 | 7 | 4.0 | 8.0 | 0.00 | 0.00 | 0.00 | 43 | 1024.8 |
| 20260906041006 | 76 | 346 | 7.0 | 12.0 | 0.00 | 0.00 | 0.00 | 43 | 1023.8 |
| 20260906040506 | 76 | 12 | 5.0 | 12.0 | 0.00 | 0.00 | 0.00 | 43 | 1023.8 |
| 20260906040006 | 76 | 35 | 4.0 | 11.0 | 0.00 | 0.00 | 0.00 | 43 | 1023.8 |
| 20260906035506 | 76 | 7 | 5.0 | 12.0 | 0.00 | 0.00 | 0.00 | 43 | 1023.8 |
| 20260906035006 | 76 | 7 | 5.0 | 13.0 | 0.00 | 0.00 | 0.00 | 43 | 1023.8 |
| 20260906034506 | 76 | 32 | 7.0 | 13.0 | 0.00 | 0.00 | 0.00 | 43 | 1023.8 |
| 20260906034006 | 77 | 28 | 6.0 | 12.0 | 0.00 | 0.00 | 0.00 | 43 | 1023.8 |
| 20260906033505 | 77 | 39 | 4.0 | 12.0 | 0.00 | 0.00 | 0.00 | 43 | 1023.8 |
| 20260906033006 | 77 | 51 | 3.0 | 9.0 | 0.00 | 0.00 | 0.00 | 43 | 1023.8 |
| 20260906032006 | 77 | 28 | 5.0 | 10.0 | 0.00 | 0.00 | 0.00 | 42 | 1023.8 |
| 20260906031005 | 77 | 355 | 4.0 | 12.0 | 0.00 | 0.00 | 0.00 | 42 | 1023.8 |
| 20260906030506 | 77 | 1 | 7.0 | 13.0 | 0.00 | 0.00 | 0.00 | 42 | 1023.8 |
| 20260906030005 | 77 | 11 | 4.0 | 13.0 | 0.00 | 0.00 | 0.00 | 43 | 1023.8 |
| 20260906025506 | 76 | 342 | 3.0 | 11.0 | 0.00 | 0.00 | 0.00 | 43 | 1023.8 |
| 20260906024506 | 76 | 29 | 2.0 | 8.0 | 0.00 | 0.00 | 0.00 | 43 | 1023.8 |
| 20260906024006 | 76 | 327 | 6.0 | 8.0 | 0.00 | 0.00 | 0.00 | 43 | 1023.8 |
| 20260906023006 | 77 | 355 | 1.0 | 9.0 | 0.00 | 0.00 | 0.00 | 43 | 1023.8 |
| 20260906022506 | 77 | 289 | 4.0 | 9.0 | 0.00 | 0.00 | 0.00 | 43 | 1023.8 |
| 20260906022005 | 77 | 314 | 6.0 | 9.0 | 0.00 | 0.00 | 0.00 | 41 | 1023.8 |
| 20260906021005 | 77 | 321 | 6.0 | 7.0 | 0.00 | 0.00 | 0.00 | 41 | 1023.8 |
| 20260906020005 | 78 | 329 | 3.0 | 13.0 | 0.00 | 0.00 | 0.00 | 41 | 1023.8 |
| 20260906015506 | 78 | 355 | 3.0 | 11.0 | 0.00 | 0.00 | 0.00 | 41 | 1023.8 |
| 20260906015006 | 78 | 328 | 2.0 | 11.0 | 0.00 | 0.00 | 0.00 | 41 | 1023.8 |
| 20260906014506 | 78 | 334 | 4.0 | 14.0 | 0.00 | 0.00 | 0.00 | 40 | 1023.8 |
| 20260906014005 | 78 | 328 | 7.0 | 14.0 | 0.00 | 0.00 | 0.00 | 40 | 1023.8 |
| 20260906013506 | 78 | 315 | 7.0 | 15.0 | 0.00 | 0.00 | 0.00 | 40 | 1023.8 |
| 20260906013005 | 78 | 329 | 7.0 | 15.0 | 0.00 | 0.00 | 0.00 | 40 | 1023.8 |
| 20260906012506 | 78 | 329 | 4.0 | 10.0 | 0.00 | 0.00 | 0.00 | 41 | 1022.8 |
| 20260906012005 | 78 | 328 | 6.0 | 20.0 | 0.00 | 0.00 | 0.00 | 41 | 1022.8 |
| 20260906011005 | 78 | 345 | 11.0 | 19.0 | 0.00 | 0.00 | 0.00 | 41 | 1023.8 |
| 20260906010006 | 78 | 331 | 2.0 | 12.0 | 0.00 | 0.00 | 0.00 | 41 | 1023.8 |
| 20260906005506 | 78 | 333 | 3.0 | 12.0 | 0.00 | 0.00 | 0.00 | 41 | 1023.8 |
| 20260906005006 | 78 | 333 | 5.0 | 11.0 | 0.00 | 0.00 | 0.00 | 41 | 1023.8 |
| 20260906004505 | 78 | 342 | 5.0 | 11.0 | 0.00 | 0.00 | 0.00 | 41 | 1023.8 |
| 20260906004006 | 78 | 349 | 4.0 | 9.0 | 0.00 | 0.00 | 0.00 | 41 | 1023.8 |
| 20260906003006 | 78 | 2 | 3.0 | 7.0 | 0.00 | 0.00 | 0.00 | 41 | 1023.8 |
| 20260906002505 | 78 | 14 | 5.0 | 11.0 | 0.00 | 0.00 | 0.00 | 41 | 1023.8 |
| 20260906002006 | 78 | 14 | 7.0 | 11.0 | 0.00 | 0.00 | 0.00 | 40 | 1023.8 |
| 20260906001505 | 79 | 11 | 3.0 | 12.0 | 0.00 | 0.00 | 0.00 | 41 | 1023.8 |
| 20260906001006 | 79 | 4 | 4.0 | 12.0 | 0.00 | 0.00 | 0.00 | 40 | 1023.8 |
| 20260906000006 | 79 | 32 | 7.0 | 13.0 | 0.00 | 0.00 | 0.00 | 40 | 1023.8 |
| 20260905235505 | 79 | 23 | 5.0 | 14.0 | 0.00 | 0.00 | 0.00 | 40 | 1023.8 |
| 20260905235006 | 79 | 8 | 9.0 | 14.0 | 0.00 | 0.00 | 0.00 | 40 | 1023.8 |
| 20260905234506 | 79 | 359 | 4.0 | 8.0 | 0.00 | 0.00 | 0.00 | 40 | 1023.8 |
| 20260905234005 | 79 | 359 | 3.0 | 12.0 | 0.00 | 0.00 | 0.00 | 41 | 1023.8 |
| 20260905233506 | 79 | 7 | 2.0 | 12.0 | 0.00 | 0.00 | 0.00 | 40 | 1023.8 |
| 20260905233005 | 79 | 14 | 7.0 | 11.0 | 0.00 | 0.00 | 0.00 | 40 | 1023.8 |
| 20260905232506 | 79 | 17 | 6.0 | 11.0 | 0.00 | 0.00 | 0.00 | 40 | 1023.8 |
| 20260905232006 | 80 | 1 | 4.0 | 11.0 | 0.00 | 0.00 | 0.00 | 40 | 1023.8 |
| 20260905231005 | 80 | 7 | 7.0 | 18.0 | 0.00 | 0.00 | 0.00 | 40 | 1023.8 |
| 20260905230506 | 80 | 6 | 4.0 | 18.0 | 0.00 | 0.00 | 0.00 | 40 | 1023.8 |
| 20260905230006 | 80 | 8 | 2.0 | 12.0 | 0.00 | 0.00 | 0.00 | 40 | 1023.8 |
| 20260905225505 | 80 | 18 | 7.0 | 12.0 | 0.00 | 0.00 | 0.00 | 40 | 1022.8 |
| 20260905225006 | 80 | 13 | 4.0 | 12.0 | 0.00 | 0.00 | 0.00 | 40 | 1022.8 |
| 20260905224505 | 80 | 10 | 5.0 | 11.0 | 0.00 | 0.00 | 0.00 | 40 | 1022.8 |
| 20260905224006 | 80 | 18 | 11.0 | 12.0 | 0.00 | 0.00 | 0.00 | 40 | 1022.8 |
| 20260905223505 | 80 | 18 | 4.0 | 12.0 | 0.00 | 0.00 | 0.00 | 40 | 1022.8 |
| 20260905223006 | 80 | 26 | 4.0 | 9.0 | 0.00 | 0.00 | 0.00 | 39 | 1022.8 |
| 20260905222006 | 80 | 19 | 8.0 | 12.0 | 0.00 | 0.00 | 0.00 | 39 | 1022.8 |
| 20260905221006 | 80 | 20 | 8.0 | 14.0 | 0.00 | 0.00 | 0.00 | 39 | 1022.8 |
| 20260905220505 | 80 | 25 | 6.0 | 13.0 | 0.00 | 0.00 | 0.00 | 40 | 1022.8 |
| 20260905220012 | 80 | 25 | 6.0 | 13.0 | 0.00 | 0.00 | 0.00 | 39 | 1022.8 |
| 20260905215506 | 80 | 20 | 7.0 | 11.0 | 0.00 | 0.00 | 0.00 | 40 | 1022.8 |
| 20260905215006 | 80 | 19 | 4.0 | 11.0 | 0.00 | 0.00 | 0.00 | 40 | 1022.8 |
| 20260905214506 | 80 | 18 | 5.0 | 11.0 | 0.00 | 0.00 | 0.00 | 40 | 1022.8 |
| 20260905214006 | 80 | 13 | 6.0 | 10.0 | 0.00 | 0.00 | 0.00 | 40 | 1021.8 |
| 20260905213505 | 81 | 20 | 3.0 | 13.0 | 0.00 | 0.00 | 0.00 | 39 | 1021.8 |
| 20260905212505 | 81 | 35 | 6.0 | 9.0 | 0.00 | 0.00 | 0.00 | 39 | 1022.8 |
| 20260905212006 | 81 | 30 | 4.0 | 9.0 | 0.00 | 0.00 | 0.00 | 40 | 1022.8 |
| 20260905211506 | 81 | 20 | 4.0 | 13.0 | 0.00 | 0.00 | 0.00 | 40 | 1022.8 |
| 20260905211005 | 81 | 28 | 4.0 | 13.0 | 0.00 | 0.00 | 0.00 | 40 | 1022.8 |
| 20260905210505 | 81 | 30 | 6.0 | 12.0 | 0.00 | 0.00 | 0.00 | 40 | 1022.8 |
| 20260905205506 | 81 | 20 | 3.0 | 11.0 | 0.00 | 0.00 | 0.00 | 41 | 1021.8 |
| 20260905205005 | 81 | 33 | 5.0 | 10.0 | 0.00 | 0.00 | 0.00 | 40 | 1021.8 |
| 20260905204506 | 81 | 45 | 5.0 | 12.0 | 0.00 | 0.00 | 0.00 | 41 | 1021.8 |
| 20260905204005 | 80 | 48 | 9.0 | 12.0 | 0.00 | 0.00 | 0.00 | 42 | 1021.8 |
| 20260905203506 | 80 | 52 | 4.0 | 11.0 | 0.00 | 0.00 | 0.00 | 43 | 1021.8 |
| 20260905203005 | 80 | 50 | 4.0 | 9.0 | 0.00 | 0.00 | 0.00 | 43 | 1021.8 |
| 20260905202005 | 80 | 30 | 7.0 | 14.0 | 0.00 | 0.00 | 0.00 | 43 | 1021.8 |
| 20260905201505 | 80 | 40 | 5.0 | 13.0 | 0.00 | 0.00 | 0.00 | 43 | 1021.8 |
| 20260905201005 | 80 | 54 | 6.0 | 14.0 | 0.00 | 0.00 | 0.00 | 43 | 1021.8 |
| 20260905195505 | 81 | 39 | 4.0 | 12.0 | 0.00 | 0.00 | 0.00 | 43 | 1020.8 |
| 20260905195006 | 81 | 37 | 8.0 | 12.0 | 0.00 | 0.00 | 0.00 | 43 | 1020.8 |
| 20260905194506 | 81 | 41 | 4.0 | 11.0 | 0.00 | 0.00 | 0.00 | 43 | 1020.8 |
| 20260905193505 | 81 | 35 | 6.0 | 14.0 | 0.00 | 0.00 | 0.00 | 43 | 1021.8 |
| 20260905193006 | 81 | 39 | 6.0 | 9.0 | 0.00 | 0.00 | 0.00 | 44 | 1021.8 |
| 20260905192006 | 81 | 37 | 3.0 | 11.0 | 0.00 | 0.00 | 0.00 | 44 | 1021.8 |
| 20260905191505 | 81 | 48 | 3.0 | 9.0 | 0.00 | 0.00 | 0.00 | 44 | 1021.8 |
| 20260905191006 | 81 | 57 | 6.0 | 9.0 | 0.00 | 0.00 | 0.00 | 44 | 1021.8 |
| 20260905190505 | 82 | 53 | 4.0 | 14.0 | 0.00 | 0.00 | 0.00 | 44 | 1021.8 |
| 20260905190006 | 82 | 41 | 8.0 | 14.0 | 0.00 | 0.00 | 0.00 | 43 | 1021.8 |
| 20260905185505 | 82 | 31 | 6.0 | 12.0 | 0.00 | 0.00 | 0.00 | 43 | 1021.8 |
| 20260905185006 | 82 | 27 | 4.0 | 11.0 | 0.00 | 0.00 | 0.00 | 43 | 1021.8 |
| 20260905184006 | 82 | 20 | 4.0 | 10.0 | 0.00 | 0.00 | 0.00 | 43 | 1020.8 |
| 20260905183505 | 82 | 31 | 5.0 | 9.0 | 0.00 | 0.00 | 0.00 | 43 | 1020.8 |
| 20260905183006 | 82 | 26 | 4.0 | 8.0 | 0.00 | 0.00 | 0.00 | 43 | 1020.8 |
| 20260905182505 | 82 | 20 | 4.0 | 15.0 | 0.00 | 0.00 | 0.00 | 43 | 1020.8 |
| 20260905182006 | 83 | 24 | 7.0 | 15.0 | 0.00 | 0.00 | 0.00 | 42 | 1020.8 |
| 20260905181505 | 83 | 20 | 5.0 | 11.0 | 0.00 | 0.00 | 0.00 | 43 | 1020.8 |
| 20260905181006 | 83 | 12 | 6.0 | 11.0 | 0.00 | 0.00 | 0.00 | 42 | 1020.8 |
| 20260905180505 | 83 | 20 | 2.0 | 8.0 | 0.00 | 0.00 | 0.00 | 43 | 1020.8 |
| 20260905180006 | 83 | 34 | 2.0 | 11.0 | 0.00 | 0.00 | 0.00 | 43 | 1020.8 |
| 20260905175505 | 83 | 39 | 4.0 | 12.0 | 0.00 | 0.00 | 0.00 | 43 | 1020.8 |
| 20260905175006 | 83 | 41 | 6.0 | 13.0 | 0.00 | 0.00 | 0.00 | 43 | 1020.8 |
| 20260905174505 | 83 | 39 | 7.0 | 13.0 | 0.00 | 0.00 | 0.00 | 43 | 1020.8 |
| 20260905172505 | 84 | 23 | 7.0 | 9.0 | 0.00 | 0.00 | 0.00 | 44 | 1018.8 |
| 20260905172005 | 84 | 8 | 3.0 | 9.0 | 0.00 | 0.00 | 0.00 | 45 | 1018.8 |
| 20260905171506 | 84 | 9 | 3.0 | 11.0 | 0.00 | 0.00 | 0.00 | 45 | 1018.8 |
| 20260905170505 | 84 | 9 | 3.0 | 13.0 | 0.00 | 0.00 | 0.00 | 45 | 1019.8 |
| 20260905170005 | 83 | 13 | 5.0 | 13.0 | 0.00 | 0.00 | 0.00 | 46 | 1019.8 |
| 20260905165505 | 83 | 8 | 6.0 | 9.0 | 0.00 | 0.00 | 0.00 | 47 | 1019.8 |
| 20260905165005 | 83 | 4 | 2.0 | 8.0 | 0.00 | 0.00 | 0.00 | 48 | 1019.8 |
| 20260905164505 | 83 | 325 | 2.0 | 4.0 | 0.00 | 0.00 | 0.00 | 52 | 1019.8 |
| 20260905163505 | 84 | 282 | 2.0 | 5.0 | 0.00 | 0.00 | 0.00 | 52 | 1019.8 |
| 20260905163005 | 84 | 28 | 1.0 | 4.0 | 0.00 | 0.00 | 0.00 | 50 | 1019.8 |
| 20260905162505 | 85 | 131 | 0.0 | 3.0 | 0.00 | 0.00 | 0.00 | 50 | 1018.8 |
| 20260905162006 | 85 | 133 | 0.0 | 3.0 | 0.00 | 0.00 | 0.00 | 50 | 1018.8 |
| 20260905161505 | 85 | 284 | 1.0 | 4.0 | 0.00 | 0.00 | 0.00 | 49 | 1018.8 |
| 20260905161006 | 85 | 299 | 1.0 | 4.0 | 0.00 | 0.00 | 0.00 | 49 | 1018.8 |
| 20260905160505 | 85 | 319 | 1.0 | 2.0 | 0.00 | 0.00 | 0.00 | 49 | 1018.8 |
| 20260905160006 | 86 | 193 | 0.0 | 2.0 | 0.00 | 0.00 | 0.00 | 49 | 1018.8 |
| 20260905155505 | 86 | 186 | 1.0 | 2.0 | 0.00 | 0.00 | 0.00 | 48 | 1018.8 |
| 20260905155006 | 86 | 265 | 1.0 | 2.0 | 0.00 | 0.00 | 0.00 | 47 | 1018.8 |
| 20260905154505 | 86 | 223 | 1.0 | 2.0 | 0.00 | 0.00 | 0.00 | 46 | 1018.8 |
| 20260905154006 | 86 | 195 | 1.0 | 3.0 | 0.00 | 0.00 | 0.00 | 46 | 1018.8 |
| 20260905153005 | 86 | 261 | 0.0 | 3.0 | 0.00 | 0.00 | 0.00 | 45 | 1018.8 |
| 20260905152505 | 87 | 238 | 1.0 | 3.0 | 0.00 | 0.00 | 0.00 | 43 | 1018.8 |
| 20260905152005 | 87 | 236 | 3.0 | 4.0 | 0.00 | 0.00 | 0.00 | 43 | 1018.8 |
| 20260905151505 | 87 | 267 | 2.0 | 7.0 | 0.00 | 0.00 | 0.00 | 42 | 1018.8 |
| 20260905151005 | 87 | 289 | 3.0 | 7.0 | 0.00 | 0.00 | 0.00 | 39 | 1018.8 |
| 20260905150506 | 87 | 304 | 3.0 | 6.0 | 0.00 | 0.00 | 0.00 | 39 | 1018.8 |
| 20260905150005 | 88 | 312 | 3.0 | 9.0 | 0.00 | 0.00 | 0.00 | 39 | 1018.8 |
| 20260905145505 | 88 | 299 | 6.0 | 9.0 | 0.00 | 0.00 | 0.00 | 39 | 1017.7 |
| 20260905145005 | 88 | 285 | 5.0 | 7.0 | 0.00 | 0.00 | 0.00 | 39 | 1017.7 |
| 20260905144005 | 88 | 233 | 4.0 | 6.0 | 0.00 | 0.00 | 0.00 | 38 | 1017.7 |
| 20260905143505 | 88 | 205 | 3.0 | 6.0 | 0.00 | 0.00 | 0.00 | 38 | 1017.7 |
| 20260905143005 | 88 | 250 | 6.0 | 6.0 | 0.00 | 0.00 | 0.00 | 37 | 1017.7 |